[[{"header":{"parameterUnit":"m.s-1","parameterCategory":1,"la1":30.2991,"la2":30.254,"lo1":-89.0895,"lo2":-89.0444,"dy":0.0017,"dx":0.0017,"nx":28,"ny":28,"refTime":"2025-04-08T09:00:00:Z","depth":0,"parameterNumber":2,"parameterNumberName":"U-component_of_WINDS"},"data":[0,0,0,0,0,0,0,0,0,0,0,0,0,0,0,0,0,0,0,0,0,0,0,0,0,0,0,0,0,0,0,0,0,0,0,0,0,0,0,0,0,0,0,0,0,0,0,0,0,0,0,0,0,0,0,0,0,0,1.2521,1.2522,0,1.2596,1.2596,1.2597,1.2635,1.2635,1.2635,1.2635,1.2712,1.2713,1.2715,0,0,0,0,0,0,0,0,0,0,0,0,0,1.2413,1.2415,1.2521,1.2522,1.2523,1.2595,1.2596,1.2598,1.2635,1.2635,1.2635,1.2635,1.2711,1.2713,1.2716,0,0,0,0,0,0,0,0,0,0,0,0,0,1.2471,1.2416,1.2521,1.2551,1.2554,1.2595,1.2597,1.2598,1.2635,1.2635,1.2635,1.2635,1.271,1.2713,1.2716,1.2734,0,0,1.2725,1.2726,0,0,0,0,0,0,0,0,1.2468,1.2475,1.2545,1.2549,1.2552,1.2606,1.2587,1.2643,1.2635,1.2604,1.2635,1.2635,1.2676,1.2682,1.2696,1.2737,1.2741,1.2725,1.2727,1.2729,1.2729,0,0,0,0,0,0,0,1.2464,1.2472,1.2551,1.2546,1.2551,1.2561,1.2569,1.2597,1.2639,1.2607,1.261,1.2618,1.2678,1.2693,1.2698,1.2742,1.2725,1.2728,1.273,1.2731,1.2803,1.2803,0,0,0,0,0,0,1.2455,1.2469,1.2548,1.2553,1.2509,1.2562,1.2572,1.2589,1.2639,1.2647,1.2618,1.262,1.2688,1.2695,1.2701,1.2726,1.2729,1.2731,1.2733,1.2803,1.2803,1.2803,0,0,0,0,0,0,1.2452,1.2462,1.2545,1.2512,1.2523,1.2564,1.2583,1.259,1.2605,1.2647,1.2655,1.2625,1.2688,1.2697,1.2726,1.2729,1.2733,1.2735,1.2803,1.2803,1.2803,1.2776,0,0,0,0,0,0,1.2449,1.2461,1.2467,1.2511,1.2525,1.2568,1.2583,1.2592,1.261,1.2613,1.2656,1.2663,1.2689,1.2721,1.2729,1.2733,1.2738,1.2803,1.2803,1.2803,1.2776,1.2775,1.2773,0,0,0,0,0,1.2445,1.2456,1.2467,1.2477,1.2534,1.2568,1.2576,1.2605,1.261,1.2618,1.2645,1.2662,1.2728,1.2724,1.2733,1.2738,1.2802,1.2803,1.2803,1.2777,1.2775,1.2773,0,0,0,0,0,0,1.2411,1.2462,1.2475,1.2501,1.253,1.2575,1.2585,1.2602,1.263,1.2631,1.2666,1.2676,1.2702,1.2723,1.2718,1.2759,1.2767,1.2769,1.2744,1.2743,1.2741,1.2735,1.274,0,0,0,0,0,1.2406,1.243,1.2474,1.2492,1.2506,1.2543,1.2559,1.2579,1.261,1.2623,1.2652,1.2683,1.271,1.2728,1.2755,1.278,1.279,1.2788,1.2787,1.2785,1.2787,1.2803,1.2802,1.2804,1.2804,1.2804,0,0,1.2397,1.2428,1.2441,1.2486,1.2511,1.2535,1.2553,1.2577,1.2596,1.2627,1.2656,1.2679,1.2715,1.2742,1.2755,1.276,1.2789,1.2786,1.2784,1.2786,1.2803,1.2803,1.2802,1.2804,1.2804,1.2804,0,0,1.2393,1.2418,1.2437,1.2462,1.25,1.2524,1.2529,1.2571,1.2588,1.2618,1.2642,1.2665,1.2711,1.2736,1.2755,1.2762,1.2779,1.277,1.2762,1.2777,1.2777,1.2777,1.278,1.2781,1.2771,1.2771,1.2771,0,1.2377,1.2414,1.2444,1.2468,1.2488,1.2517,1.2537,1.256,1.2604,1.2618,1.2623,1.2683,1.2709,1.2743,1.2745,1.2759,1.2766,1.2765,1.2775,1.2775,1.2776,1.2779,1.278,1.277,1.277,1.277,1.277,0,1.2392,1.2418,1.2428,1.2471,1.2492,1.2513,1.2548,1.2566,1.2585,1.2609,1.264,1.2673,1.2708,1.2718,1.2736,1.2755,1.2757,1.2768,1.2776,1.2774,1.2778,1.2779,1.2768,1.2768,1.2769,1.2769,0,0,1.2368,1.2428,1.2432,1.2452,1.2496,1.2517,1.254,1.2575,1.259,1.262,1.2641,1.2681,1.2691,1.2713,1.2734,1.2747,1.2752,1.2757,1.2758,1.2755,1.2776,1.2768,1.2769,1.2764,1.2764,1.2764,1.2773,0,1.237,1.2413,1.2442,1.2474,1.2498,1.2528,1.2548,1.2578,1.2602,1.2626,1.2653,1.268,1.2692,1.2706,1.272,1.2748,1.2757,1.2748,1.2784,1.2785,1.2774,1.2771,1.2762,1.2769,1.2775,1.2775,1.2776,0,1.2378,1.2408,1.2442,1.2485,1.2497,1.2514,1.2549,1.2572,1.2607,1.2624,1.2648,1.2671,1.2697,1.2704,1.2742,1.2735,1.2752,1.2768,1.2769,1.2774,1.278,1.2776,1.2772,1.2773,1.2778,1.2778,1.2778,0,1.2357,1.2406,1.2433,1.245,1.25,1.2513,1.2534,1.2569,1.2589,1.262,1.2633,1.2666,1.2685,1.271,1.2741,1.2743,1.2777,1.2785,1.2792,1.2791,1.2797,1.2796,1.2796,1.2807,1.2807,1.2807,1.2807,0,1.2357,1.2377,1.2425,1.2442,1.2465,1.2499,1.2522,1.2546,1.2577,1.26,1.2627,1.2648,1.2687,1.2713,1.2738,1.2766,1.2774,1.2788,1.2795,1.2786,1.2784,1.2798,1.2798,1.2808,1.2807,1.2807,1.2807,0,1.2338,1.2371,1.2402,1.2448,1.246,1.2476,1.2515,1.2533,1.2559,1.2587,1.2596,1.2636,1.2668,1.2701,1.2744,1.2761,1.2788,1.2797,1.2777,1.278,1.2785,1.2784,1.2793,1.2797,1.2805,1.2805,1.2805,0,1.2336,1.2352,1.24,1.2417,1.2438,1.2465,1.2485,1.252,1.254,1.2582,1.2595,1.2629,1.2658,1.2708,1.2741,1.2774,1.2784,1.2785,1.279,1.2781,1.2785,1.2784,1.2786,1.2784,1.2783,1.2783,1.2783,0,1.2328,1.2344,1.2372,1.2407,1.243,1.2459,1.2489,1.2501,1.2542,1.2563,1.2596,1.2619,1.2663,1.2697,1.2735,1.2758,1.2778,1.2782,1.2785,1.2776,1.2764,1.2772,1.2773,1.2781,1.2781,1.2781,1.2782,1.2782,1.2318,1.2334,1.2371,1.2402,1.2428,1.2455,1.2475,1.2503,1.2531,1.257,1.2589,1.2622,1.2659,1.2711,1.2734,1.2761,1.2767,1.2771,1.2773,1.2773,1.2772,1.276,1.2768,1.2768,1.2768,1.2768,1.2769,0,1.2313,1.2338,1.2366,1.2407,1.2432,1.2448,1.2483,1.2502,1.2531,1.2563,1.2591,1.263,1.2663,1.27,1.2735,1.275,1.276,1.2758,1.2758,1.2763,1.2764,1.2758,1.275,1.275,1.275,1.275,1.275,1.275,1.2313,1.2342,1.2362,1.2404,1.243,1.2463,1.2481,1.2507,1.2533,1.2575,1.2602,1.2626,1.266,1.2699,1.273,1.274,1.2753,1.2748,1.2761,1.2761,1.2763,1.2764,1.2758,1.275,1.275,1.2757,1.2758,1.2758]},{"header":{"parameterUnit":"m.s-1","parameterCategory":1,"la1":30.2991,"la2":30.254,"lo1":-89.0895,"lo2":-89.0444,"dy":0.0017,"dx":0.0017,"nx":28,"ny":28,"refTime":"2025-04-08T09:00:00:Z","depth":0,"parameterNumber":3,"parameterNumberName":"V-component_of_WINDS"},"data":[0,0,0,0,0,0,0,0,0,0,0,0,0,0,0,0,0,0,0,0,0,0,0,0,0,0,0,0,0,0,0,0,0,0,0,0,0,0,0,0,0,0,0,0,0,0,0,0,0,0,0,0,0,0,0,0,0,0,-2.5503,-2.5504,0,-2.5558,-2.5559,-2.5559,-2.5616,-2.5617,-2.5617,-2.5618,-2.5672,-2.5672,-2.5673,0,0,0,0,0,0,0,0,0,0,0,0,0,-2.5446,-2.5447,-2.5503,-2.5504,-2.5504,-2.5558,-2.5559,-2.5559,-2.5616,-2.5617,-2.5618,-2.5619,-2.5672,-2.5672,-2.5673,0,0,0,0,0,0,0,0,0,0,0,0,0,-2.5483,-2.5447,-2.5503,-2.5539,-2.5543,-2.5558,-2.5559,-2.556,-2.5616,-2.5617,-2.5618,-2.5619,-2.5671,-2.5672,-2.5673,-2.5656,0,0,-2.5676,-2.5677,0,0,0,0,0,0,0,0,-2.548,-2.5485,-2.5533,-2.5536,-2.5541,-2.5581,-2.5558,-2.5592,-2.5615,-2.5588,-2.5618,-2.562,-2.5641,-2.5644,-2.5652,-2.5659,-2.5661,-2.5677,-2.5677,-2.5678,-2.5678,0,0,0,0,0,0,0,-2.5478,-2.5483,-2.5525,-2.5534,-2.5538,-2.5552,-2.5559,-2.5565,-2.5607,-2.559,-2.5595,-2.56,-2.5643,-2.5651,-2.5654,-2.5662,-2.5677,-2.5677,-2.5678,-2.5679,-2.566,-2.5659,0,0,0,0,0,0,-2.547,-2.548,-2.5523,-2.5526,-2.5513,-2.5552,-2.556,-2.5567,-2.5607,-2.5614,-2.5599,-2.5603,-2.5648,-2.5652,-2.5656,-2.564,-2.5678,-2.5679,-2.5679,-2.5661,-2.566,-2.5659,0,0,0,0,0,0,-2.5469,-2.5473,-2.5521,-2.5504,-2.5512,-2.5552,-2.556,-2.5568,-2.5575,-2.5614,-2.5621,-2.56,-2.5649,-2.5654,-2.5657,-2.5642,-2.5679,-2.568,-2.5663,-2.5661,-2.5659,-2.5607,0,0,0,0,0,0,-2.5467,-2.5472,-2.5466,-2.5504,-2.5512,-2.552,-2.5559,-2.5568,-2.5577,-2.5583,-2.5616,-2.5623,-2.5651,-2.5655,-2.5657,-2.5644,-2.5681,-2.5664,-2.5662,-2.566,-2.561,-2.5604,-2.5598,0,0,0,0,0,-2.5464,-2.5448,-2.5466,-2.547,-2.5505,-2.552,-2.5524,-2.5557,-2.5576,-2.557,-2.5596,-2.5622,-2.5644,-2.5654,-2.5658,-2.5645,-2.5665,-2.5663,-2.566,-2.5613,-2.5605,-2.5598,0,0,0,0,0,0,-2.5406,-2.5453,-2.5473,-2.5469,-2.549,-2.5529,-2.5523,-2.5548,-2.5563,-2.5567,-2.5607,-2.5614,-2.5612,-2.5629,-2.564,-2.5632,-2.5658,-2.5656,-2.5621,-2.5614,-2.5608,-2.5604,-2.5682,0,0,0,0,0,-2.5393,-2.5401,-2.5442,-2.5434,-2.5444,-2.5481,-2.5489,-2.5513,-2.5536,-2.5545,-2.557,-2.559,-2.5603,-2.5609,-2.5622,-2.5613,-2.5622,-2.5606,-2.56,-2.5595,-2.5593,-2.5591,-2.5585,-2.5651,-2.5651,-2.5651,0,0,-2.5365,-2.5392,-2.5394,-2.5423,-2.5442,-2.5449,-2.5488,-2.5494,-2.55,-2.5545,-2.5549,-2.5569,-2.5595,-2.5592,-2.5592,-2.5606,-2.5577,-2.5592,-2.5588,-2.5588,-2.5588,-2.5582,-2.5576,-2.5649,-2.5649,-2.5649,0,0,-2.5318,-2.5339,-2.5336,-2.5355,-2.5385,-2.541,-2.5409,-2.5446,-2.5461,-2.5466,-2.5501,-2.5509,-2.5528,-2.5546,-2.5557,-2.5521,-2.5546,-2.5524,-2.5492,-2.549,-2.5485,-2.5481,-2.5468,-2.5464,-2.5521,-2.5521,-2.5521,0,-2.5279,-2.5293,-2.5331,-2.5335,-2.5347,-2.5391,-2.5388,-2.5404,-2.5436,-2.5443,-2.5459,-2.5486,-2.5506,-2.5509,-2.55,-2.5508,-2.5509,-2.5519,-2.5483,-2.5479,-2.5475,-2.5464,-2.5459,-2.5518,-2.5519,-2.5519,-2.5519,0,-2.5244,-2.5253,-2.5247,-2.5278,-2.529,-2.529,-2.5329,-2.5336,-2.536,-2.5384,-2.539,-2.5416,-2.5436,-2.5439,-2.5461,-2.5446,-2.5454,-2.5476,-2.5502,-2.5466,-2.5456,-2.5452,-2.5514,-2.5515,-2.5516,-2.5517,0,0,-2.516,-2.5215,-2.5212,-2.5228,-2.5265,-2.5272,-2.5275,-2.5297,-2.5302,-2.5323,-2.5327,-2.5344,-2.5366,-2.5379,-2.5404,-2.5402,-2.5373,-2.5425,-2.5426,-2.5415,-2.5359,-2.5342,-2.5337,-2.5391,-2.539,-2.539,-2.5357,0,-2.512,-2.5129,-2.5165,-2.5163,-2.5173,-2.5216,-2.5219,-2.5242,-2.5266,-2.5277,-2.5303,-2.5314,-2.5341,-2.535,-2.535,-2.5377,-2.5363,-2.538,-2.5395,-2.5395,-2.5387,-2.5331,-2.5313,-2.5281,-2.5353,-2.5353,-2.5352,0,-2.5073,-2.5094,-2.5093,-2.5133,-2.5138,-2.514,-2.5164,-2.5174,-2.5202,-2.522,-2.5236,-2.5265,-2.5271,-2.5297,-2.5307,-2.5318,-2.5327,-2.5341,-2.5341,-2.5343,-2.5371,-2.5332,-2.5271,-2.5266,-2.5347,-2.5347,-2.5347,0,-2.5012,-2.504,-2.5044,-2.5056,-2.5102,-2.5103,-2.5121,-2.5151,-2.5162,-2.5183,-2.5191,-2.5211,-2.5222,-2.5237,-2.5272,-2.5287,-2.5278,-2.5307,-2.5293,-2.5292,-2.5288,-2.5288,-2.5228,-2.5294,-2.5294,-2.5294,-2.5294,0,-2.4963,-2.4962,-2.5018,-2.502,-2.502,-2.5062,-2.5061,-2.5084,-2.511,-2.5118,-2.5156,-2.5163,-2.5208,-2.522,-2.5247,-2.5252,-2.5256,-2.527,-2.5277,-2.5267,-2.5265,-2.5272,-2.5276,-2.5293,-2.5293,-2.5293,-2.5294,0,-2.4894,-2.4932,-2.4939,-2.4983,-2.4994,-2.4993,-2.503,-2.5034,-2.5062,-2.5071,-2.5076,-2.5118,-2.5134,-2.5171,-2.5196,-2.5214,-2.5213,-2.5225,-2.5203,-2.5208,-2.5192,-2.5193,-2.5135,-2.5129,-2.5198,-2.5198,-2.5197,0,-2.486,-2.4861,-2.4906,-2.4915,-2.4933,-2.4946,-2.4959,-2.5,-2.5012,-2.5045,-2.5046,-2.5066,-2.5084,-2.5108,-2.514,-2.516,-2.5174,-2.5152,-2.5177,-2.5167,-2.5174,-2.5174,-2.5175,-2.5146,-2.5145,-2.5145,-2.5144,0,-2.4796,-2.4816,-2.4833,-2.4857,-2.4872,-2.4892,-2.4915,-2.492,-2.4967,-2.4978,-2.4996,-2.5011,-2.5038,-2.5058,-2.5084,-2.5103,-2.5131,-2.5136,-2.5134,-2.5123,-2.5111,-2.5118,-2.5188,-2.5137,-2.5138,-2.5138,-2.5139,-2.5139,-2.4744,-2.4747,-2.478,-2.4799,-2.4821,-2.4842,-2.4849,-2.4878,-2.4894,-2.4921,-2.4945,-2.4961,-2.4991,-2.5029,-2.5048,-2.5061,-2.5075,-2.5072,-2.5071,-2.5069,-2.5065,-2.5109,-2.5066,-2.5066,-2.5066,-2.5066,-2.5067,0,-2.4683,-2.4707,-2.4724,-2.4756,-2.4771,-2.4798,-2.4826,-2.4836,-2.485,-2.4877,-2.4895,-2.4916,-2.4936,-2.4972,-2.4995,-2.4999,-2.5012,-2.5003,-2.5003,-2.5007,-2.5051,-2.5051,-2.4992,-2.4992,-2.4992,-2.4992,-2.4992,-2.4992,-2.4652,-2.466,-2.4683,-2.4703,-2.4727,-2.4744,-2.4758,-2.4778,-2.48,-2.4823,-2.484,-2.4864,-2.4894,-2.492,-2.494,-2.495,-2.4957,-2.4943,-2.4957,-2.4997,-2.5004,-2.5011,-2.5011,-2.4944,-2.4944,-2.4913,-2.4912,-2.4912]}]]